This is the latest recevied weather packets stored in our database for station/object SQ9MHX-13. If no packets are shown the sender has not sent any weather packets the latest 10 day(s).
| Time | Temp. | Humidity | Pressure | Rain* | Wind** | Luminosity | Snow |
|---|---|---|---|---|---|---|---|
| 1777395888 | 11.11° C | 27% | 978.7 hPa | - | 0 m/s | - | - |
| 1777395292 | 11.11° C | 25% | 978.2 hPa | - | 0 m/s | - | - |
| 1777394993 | 11.11° C | 25% | 978.1 hPa | - | 0 m/s | - | - |
| 1777394098 | 11.11° C | 25% | 977.4 hPa | - | 0 m/s | - | - |
| 1777393502 | 11.11° C | 25% | 977.1 hPa | - | 0 m/s | - | - |
| 1777393203 | 11.11° C | 25% | 976.9 hPa | - | 0 m/s | - | - |
| 1777392905 | 11.11° C | 25% | 976.4 hPa | - | 0 m/s | - | - |
| 1777392606 | 11.11° C | 26% | 976.2 hPa | - | 0 m/s | - | - |
| 1777392308 | 11.11° C | 24% | 976.1 hPa | - | 0 m/s | - | - |
| 1777392009 | 11.11° C | 24% | 976.3 hPa | - | 0 m/s | - | - |
| 1777391711 | 11.11° C | 24% | 976.2 hPa | - | 0 m/s | - | - |
| 1777391412 | 11.11° C | 26% | 976.1 hPa | - | 0 m/s | - | - |
| 1777391114 | 11.11° C | 25% | 975.6 hPa | - | 0 m/s | - | - |
| 1777390517 | 12.78° C | 22% | 974.8 hPa | - | 0 m/s | - | - |
| 1777390218 | 12.22° C | 23% | 975 hPa | - | 0 m/s | - | - |
| 1777389621 | 12.22° C | 23% | 974.4 hPa | - | 0 m/s | - | - |
| 1777389322 | 12.78° C | 22% | 974.2 hPa | - | 0 m/s | - | - |
| 1777389024 | 12.78° C | 22% | 974.2 hPa | - | 0 m/s | - | - |
| 1777388725 | 12.78° C | 23% | 974.4 hPa | - | 0 m/s | - | - |
| 1777388427 | 12.22° C | 23% | 974.1 hPa | - | 0 m/s | - | - |
| 1777387829 | 12.22° C | 25% | 974.1 hPa | - | 0 m/s | - | - |
| 1777387232 | 12.78° C | 22% | 974.2 hPa | - | 0 m/s | - | - |
| 1777386934 | 12.22° C | 24% | 974.6 hPa | - | 0 m/s | - | - |
| 1777386635 | 12.22° C | 23% | 974.2 hPa | - | 0 m/s | - | - |
| 1777386337 | 12.78° C | 20% | 974 hPa | - | 0 m/s | - | - |
* Rain since midnight (hover to see other rain measurements)
** Current wind speed in m/s (hover to see current wind gust speed)